User: anonymous   Login
Location: Fisheating Creek Campgrounds
(26.9333°N, 81.3167°W)
Time: 09:25:43
(UTC-05:00)
Language:

NATO 3D Rocket - Orbit

View from above orbital plane
View from above orbital plane
View from above satellite
View from above satellite

Ground track
Ground track

The orbit data is extracted from the following two-line orbital elements,

1 15392U 84115B   15021.97517816  .00000255  00000-0  10338-3 0  2300
2 15392 021.4920 359.4074 1035003 055.3188 342.8131 12.45471240374561
Epoch (UTC): 21 January 2015 23:24:15
Eccentricity: 0.1035003
inclination: 21.4920°
perigee height: 670 km
apogee height: 2297 km
right ascension of ascending node: 359.4074°
argument of perigee: 55.3188°
revolutions per day: 12.45471240
mean anomaly at epoch: 342.8131°
orbit number at epoch: 37456

The dashed part of the orbit path shows where the satellite is in the earth's shadow,  

DLR